Notices

Due to recent upgrades, we are currently experiencing delays in populating our data report tables. We thank you for your patience during this time of difficulty as we are working in rectifying this issue as soon as possible. If you have any questions or concerns, please contact us.

Hourly Data Report for July 15, 2012

HALIFAX STANFIELD INT'L A
NOVA SCOTIA

44°52'48.060" N
63°30'00.050" W
145.40 m
8202250
71395
YHZ

Download Data

Hourly Data (July 2012)
Hourly Data Report for July 15, 2012
TIME
LST
Temp Definition
°C
Dew Point Definition
°C
Rel Hum Definition
%
Precip. Amount Definition
mm

Wind Dir Definition
10's deg

Wind Spd Definition
km/h
Visibility Definition
km
Stn Press Definition
kPa
Hmdx Definition


Wind Chill Definition


Weather Definition


00:00 18.4 17.4 94   35 17 19.3 100.05     Cloudy
01:00 18.1 17.5 96   35 15 16.1 100.04     Cloudy
02:00 17.6 17.6 100   35 19 2.4 100.04     Fog
03:00 17.5 16.9 96   36 17 16.1 100.06     Cloudy
04:00 17.1 16.9 99   36 15 12.9 100.09     Cloudy
05:00 16.6 16.6 100   1 17 4.0 100.13     Drizzle, Fog
06:00 16.0 15.9 99   2 13 1.6 100.15     Drizzle, Fog
07:00 16.3 16.0 98   36 7 11.3 100.17     Cloudy
08:00 17.2 16.1 93   35 9 24.1 100.19     Cloudy
09:00 18.6 15.9 84   1 11 24.1 100.20     Cloudy
10:00 19.9 16.3 80   1 15 24.1 100.20     Mostly Cloudy
11:00 21.0 15.4 70     0 24.1 100.17 25   Mostly Cloudy
12:00 23.2 15.1 60   4 6 24.1 100.14 27   Mostly Cloudy
13:00 24.0 14.8 56     0 24.1 100.08 28   Mainly Clear
14:00 25.1 14.6 52   21 7 24.1 99.99 29   Mainly Clear
15:00 25.6 16.5 57   22 11 24.1 99.95 31   Mainly Clear
16:00 24.5 17.0 63   17 19 24.1 99.91 30   Mainly Clear
17:00 23.2 14.4 58   17 15 24.1 99.89 27   Mainly Clear
18:00 21.7 14.3 63   16 13 24.1 99.90 25   Mainly Clear
19:00 19.5 14.3 72   16 13 24.1 99.87     Mainly Clear
20:00 17.1 15.6 91   17 15 24.1 99.84     Mostly Cloudy
21:00 16.3 15.8 97   16 17 2.4 99.88     Fog
22:00 16.3 15.2 93   18 15 8.0 99.89     Fog
23:00 15.9 15.1 95   16 13 8.0 99.85     Fog

Notes on Data Quality.

Legend

  • E = Estimated
  • M = Missing
  • NA = Not Available*
  • [empty] = Indicates an unobserved value
Date modified: